Terremoto di magnitudo ML 4.7 del 26-11-2019 ore 14:05:00 (Italia) in zona: Costa Albanese settentrionale (ALBANIA)

Un terremoto di magnitudo ML 4.7 è avvenuto nella zona: Costa Albanese settentrionale (ALBANIA), il

  • 26-11-2019 13:05:00 (UTC)
  • 26-11-2019 14:05:00 (UTC +01:00) ora italiana

con coordinate geografiche (lat, lon) 41.57, 19.68 ad una profondità di 36 km.

Il terremoto è stato localizzato da: Bollettino Sismico Italiano INGV.

Ricerca terremoti: Qualsiasi nel raggio di 30 km

I valori delle coordinate ipocentrali e della magnitudo rappresentano la migliore stima con i dati a disposizione. Eventuali nuovi dati o analisi potrebbero far variare tali stime.

Visualizza la localizzazione con

Comuni entro 20 km dall'epicentro

Nessun comune italiano entro 20 km dall'epicentro.

Città più vicine con almeno 50000 abitanti

Nessun comune italiano entro 100 km dall'epicentro con almeno 50000 abitanti.

Sismicità recente e storica
Pericolosità sismica
Mappe di scuotimento
Mappa del risentimento sismico
Cronologia delle localizzazioni calcolate
Tipo Magnitudo Tempo origine (UTC) Latitudine Longitudine Profondità (km) Ora pubblicazione (UTC) Autore ID Localizzazione
Rev 1000 ML 4.7 2019-11-26
13:05:00
41.57 19.68 36 2019-11-28
15:09:29
Bollettino Sismico Italiano INGV 74065101
Localizzazione e magnitudo preferite finora.
Parametri della localizzazione preferita

Localizzazione

Campo Valore
Tempo (UTC) 2019-11-26 13:05:00 ± 0.06
Latitudine 41.57 ± 0.00
Longitudine 19.68 ± 0.01
Profondità (km) 36 (operator assigned)
Metodo di valutazione manual
Stato della valutazione reviewed
Versione 1000 -> BULLETIN-INGV
Tipo di evento earthquake
ID localizzazione 74065101

Incertezze

Campo Valore
Tipo di incertezza uncertainty ellipse
Semi-asse maggiore dell'ellisse di confidenza (metri) 670
Semi-asse minore dell'ellisse di confidenza (metri) 360
azimuth dell’asse maggiore dell’ellisse di confidenza (gradi) 256
Regione di confidenza sul piano orizzontale espressa mediante singolo valore di incertezza (metri) 670
Livello di confidenza dell'incertezza (%) 68

Qualità

Campo Valore
Maggiore gap azimutale nella distribuzione delle stazioni all'epicentro 158
Numero di fasi associato indipendentemente se utilizzate nella localizazzione (determinazione dell'Origin') 181
Numero di fasi 40
Scarto quadratico medio dei residui di tempo risultanti dal calcolo del tempo origine (Origin) della localizzazione (sec) 0.11
Distanza epicentrale della stazione piu' vicina (gradi) 0
Distanza epicentrale della stazione piu’ lontana (gradi) 4.00738
Numero di stazioni in cui l’evento e’ stato osservato 170
Numero di stazioni usate nel calcolo dell'Origin 37
Parametri della magnitudo

ML:4.7

Campo Valore
Valore 4.7
Incertezza 0.3
Num. stazioni usate 258
Tipo di magnitudo ML
Localizzazione di riferimento 74065101
Agenzia INGV
Autore Bollettino Sismico Italiano INGV
Tempo di creazione (UTC) 2019-11-27 08:56:37
Tempi di arrivo
SCNL Time Uncertainty Polarity Evaluation_mode Phase Azimuth Distance Takeoff_angle Residual Weight
IV.SBPO.HNZ. 2019-11-26T13:08:07.18 3.0 undecidable manual Sn -0.15 0
OX.DRE.HHZ. 2019-11-26T13:07:41.59 3.0 undecidable manual Sn -3.62 0
IV.HPAC.HHZ. 2019-11-26T13:07:33.54 3.0 undecidable manual Sn -2.72 0
SL.LJU.BHZ. 2019-11-26T13:07:30.22 3.0 undecidable manual Sn -2.51 0
IV.SSY.HHZ. 2019-11-26T13:07:22.58 3.0 undecidable manual Sn -4.35 0
CR.BRJN.HHZ. 2019-11-26T13:07:21.51 3.0 undecidable manual Sn -1.86 0
SL.BOJS.BHZ. 2019-11-26T13:07:13.22 3.0 undecidable manual Sn -1.43 0
IV.MNTT.EHZ. 2019-11-26T13:07:03.57 3.0 undecidable manual Sn -1.43 0
ST.CARE.EHZ. 2019-11-26T13:06:57.27 3.0 negative manual Pn -0.51 0
OE.WTTA.HHZ. 2019-11-26T13:06:57.25 3.0 positive manual Pn -0.74 0
RD.PGF.BHZ. 2019-11-26T13:06:56.24 3.0 positive manual Pn 0.21 0
SI.ROSI.HHZ. 2019-11-26T13:06:56.06 3.0 negative manual Pn -0.47 0
ST.RONC.EHZ. 2019-11-26T13:06:55.26 3.0 negative manual Pn 0.24 0
ST.OZOL.EHZ. 2019-11-26T13:06:54.54 3.0 positive manual Pn -0.27 0
ST.GAGG.HHZ. 2019-11-26T13:06:52.64 3.0 negative manual Pn -0.41 0
IV.MNTV.HNZ. 2019-11-26T13:06:52.81 3.0 undecidable manual Pn 4.77 0
IV.SENA.HHZ. 2019-11-26T13:06:51.75 3.0 negative manual Pn -1.38 0
ST.VARA.EHZ. 2019-11-26T13:06:51.05 3.0 negative manual Pn -0.61 0
IV.PLMA.HHZ. 2019-11-26T13:06:50.76 3.0 negative manual Pn -0.36 0
IV.MBAL.EHZ. 2019-11-26T13:06:50.43 3.0 negative manual Pn -0.63 0
MN.IDI.HHZ. 2019-11-26T13:06:49.50 3.0 negative manual Pn -1.31 0
ST.PANI.EHZ. 2019-11-26T13:06:48.74 3.0 positive manual Pn -1.06 0
IV.CTI.HHZ. 2019-11-26T13:06:46.59 3.0 negative manual Pn -0.72 0
IV.FVI.HHZ. 2019-11-26T13:06:44.55 3.0 negative manual Pn 0.73 0
IV.PII.HHZ. 2019-11-26T13:06:43.16 3.0 negative manual Pn -0.28 0
IV.TEOL.HHZ. 2019-11-26T13:06:42.03 3.0 positive manual Pn 0.13 0
OX.FUSE.HHZ. 2019-11-26T13:06:39.17 3.0 positive manual Pn -1.4 0
IV.SSFR.HNZ. 2019-11-26T13:06:38.72 3.0 negative manual Pg 18.07 0
IV.MOCL.EHZ. 2019-11-26T13:06:38.25 3.0 undecidable manual Pn -0.08 0
RF.GEPF.HHZ. 2019-11-26T13:06:37.09 3.0 positive manual Pn -1.21 0
OX.MPRI.HHZ. 2019-11-26T13:06:37.62 3.0 negative manual Pn -1.41 0
IV.PTCC.HHZ. 2019-11-26T13:06:37.12 3.0 positive manual Pn -1 0
OE.ARSA.BHZ. 2019-11-26T13:06:35.32 3.0 negative manual Pn -0.02 0
IV.RUFI.EHZ. 2019-11-26T13:06:34.05 3.0 positive manual Pn -0.44 0
IV.CRJA.HHZ. 2019-11-26T13:06:34.11 3.0 undecidable manual Pn 0.93 0
OX.DRE.HHZ. 2019-11-26T13:06:33.29 3.0 positive manual Pn -0.58 0
IV.SFI.EHZ. 2019-11-26T13:06:31.61 3.0 negative manual Pn -0.01 0
IV.MFNL.HHZ. 2019-11-26T13:06:31.57 3.0 negative manual Pn -2.4 0
OX.SABO.HHZ. 2019-11-26T13:06:30.35 3.0 undecidable manual Pn -1.8 0
IV.CRE.HHZ. 2019-11-26T13:06:28.96 3.0 negative manual Pn -0.38 0
IV.CPGN.EHZ. 2019-11-26T13:06:27.38 3.0 positive manual Pn 0.68 0
IV.SACS.HHZ. 2019-11-26T13:06:27.67 3.0 positive manual Pn 0.54 0
MN.TRI.HHZ. 2019-11-26T13:06:26.32 3.0 negative manual Pn -2.27 0
SL.LJU.BHZ. 2019-11-26T13:06:26.62 3.0 undecidable manual Pn -0.24 0
IV.HPAC.HHZ. 2019-11-26T13:06:26.43 3.0 negative manual Pn -2.41 0
IV.BADI.EHZ. 2019-11-26T13:06:26.83 3.0 positive manual Pn 0.74 0
IV.PARC.HHZ. 2019-11-26T13:06:26.47 3.0 negative manual Pn -0.28 0
IV.ATMI.HHZ. 2019-11-26T13:06:26.37 3.0 positive manual Pn 1.21 0
IV.MGAB.HHZ. 2019-11-26T13:06:25.07 3.0 undecidable manual Pn -0.21 0
IV.TOLF.HHZ. 2019-11-26T13:06:25.00 3.0 positive manual Pn 0.08 0
IV.APEC.HHZ. 2019-11-26T13:06:24.50 3.0 negative manual Pn -0.13 0
IV.ATPI.EHZ. 2019-11-26T13:06:24.10 3.0 negative manual Pn -0.24 0
IV.ATVO.HHZ. 2019-11-26T13:06:23.87 3.0 negative manual Pn -0.14 0
IV.PE3.EHZ. 2019-11-26T13:06:23.25 3.0 negative manual Pn -1.3 0
IV.NARO.HHZ. 2019-11-26T13:06:23.03 3.0 positive manual Pn -0.32 0
IV.MURB.HHZ. 2019-11-26T13:06:22.49 3.0 negative manual Pn 0.09 0
IV.ATFO.HHZ. 2019-11-26T13:06:22.12 3.0 negative manual Pn -0.25 0
SL.KOGS.BHZ. 2019-11-26T13:06:22.37 3.0 undecidable manual Pn -0.03 0
IV.SAMA.EHZ. 2019-11-26T13:06:22.21 3.0 negative manual Pn 3.51 0
CR.BRJN.HHZ. 2019-11-26T13:06:21.13 3.0 negative manual Pn -0.47 0
IV.SSY.HHZ. 2019-11-26T13:06:21.01 3.0 positive manual Pn -2.59 0
IV.MPAG.EHZ. 2019-11-26T13:06:21.11 3.0 negative manual Pn -0.65 0
IV.FRON.EHZ. 2019-11-26T13:06:21.00 3.0 negative manual Pn -0.56 0
IV.ESML.HHZ. 2019-11-26T13:06:20.19 3.0 positive manual Pn 0.16 0
IV.HLNI.HHZ. 2019-11-26T13:06:20.10 3.0 positive manual Pn -2.81 0
IV.ATCC.EHZ. 2019-11-26T13:06:20.94 3.0 negative manual Pn -0.05 0
IV.HAGA.HHZ. 2019-11-26T13:06:19.58 3.0 positive manual Pn -2.09 0
IV.EPZF.HHZ. 2019-11-26T13:06:19.04 3.0 negative manual Pn 0.94 0
IV.ARVD.HHZ. 2019-11-26T13:06:18.72 3.0 undecidable manual Pn -0.71 0
IV.CESI.HHZ. 2019-11-26T13:06:17.82 3.0 undecidable manual Pn 0.05 0
IV.SNTG.HHZ. 2019-11-26T13:06:17.67 3.0 undecidable manual Pn -0.7 0
SL.BOJS.BHZ. 2019-11-26T13:06:16.52 3.0 negative manual Pn -0.18 0
IV.LNSS.HHZ. 2019-11-26T13:06:15.75 3.0 negative manual Pn 0.53 0
IV.MUCR.HHZ. 2019-11-26T13:06:15.63 3.0 positive manual Pn -0.16 0
IV.FDMO.HHZ. 2019-11-26T13:06:15.85 3.0 negative manual Pn -0.25 0
IV.NRCA.HHZ. 2019-11-26T13:06:15.29 3.0 negative manual Pn 0.15 0
IV.MC2.EHZ. 2019-11-26T13:06:14.95 3.0 negative manual Pn 0.29 0
IV.CSP1.EHZ. 2019-11-26T13:06:14.75 3.0 negative manual Pn -0.42 0
IV.LATB.EHZ. 2019-11-26T13:06:14.79 3.0 negative manual Pn -0.15 0
IV.FIAM.HHZ. 2019-11-26T13:06:14.52 3.0 undecidable manual Pn 0.77 0
IV.CERT.HHZ. 2019-11-26T13:06:14.78 3.0 negative manual Pn 0.01 0
IV.GUMA.HHZ. 2019-11-26T13:06:13.69 3.0 negative manual Pn -0.1 0
IV.MMO1.EHZ. 2019-11-26T13:06:13.42 3.0 negative manual Pn 0.15 0
IV.RM33.EHZ. 2019-11-26T13:06:13.27 3.0 undecidable manual Pn 0.02 0
HL.ITM.HHZ. 2019-11-26T13:06:12.97 3.0 positive manual Pn 0.66 0
IV.MF5.EHZ. 2019-11-26T13:06:12.50 3.0 undecidable manual Pn 0.2 0
IV.MNTT.EHZ. 2019-11-26T13:06:12.07 3.0 negative manual Pn 0.79 0
IV.MTRA.EHZ. 2019-11-26T13:06:12.79 3.0 positive manual Pn 0.68 0
IV.AIO.HHZ. 2019-11-26T13:06:12.42 3.0 negative manual Pn -1.43 0
IV.SMA1.EHZ. 2019-11-26T13:06:12.50 3.0 negative manual Pn 0.15 0
IV.PTQR.HHZ. 2019-11-26T13:06:11.38 3.0 positive manual Pn 0.84 0
IV.GIUL.HHZ. 2019-11-26T13:06:11.25 3.0 positive manual Pn -0.64 0
IV.CAMP.HHZ. 2019-11-26T13:06:11.56 3.0 negative manual Pn 0.2 0
IV.TERO.HHZ. 2019-11-26T13:06:10.15 3.0 positive manual Pn 0.49 0
IV.FAGN.HHZ. 2019-11-26T13:06:09.11 3.0 negative manual Pn 0.09 0
IV.GIGS.HHZ. 2019-11-26T13:06:09.68 3.0 positive manual Pn 0.16 0
IV.MPNC.HHZ. 2019-11-26T13:06:09.36 3.0 negative manual Pn -1.83 0
IV.TRTR.HHZ. 2019-11-26T13:06:08.06 3.0 negative manual Pn 0.85 0
IV.VVLD.HHZ. 2019-11-26T13:06:08.61 3.0 negative manual Pn 0.48 0
IV.LRP.EHZ. 2019-11-26T13:06:08.54 3.0 negative manual Pn 0.09 0
IV.MSRU.HHZ. 2019-11-26T13:06:07.18 3.0 negative manual Pn -1.69 0
IV.VCEL.EHZ. 2019-11-26T13:06:07.20 3.0 positive manual Pn 0.51 0
IV.T0110.HHZ. 2019-11-26T13:06:07.19 3.0 undecidable manual Pn 0.19 0
IV.GMB.BHZ. 2019-11-26T13:06:06.86 3.0 undecidable manual Pn -0.74 0
IV.SOI.EHZ. 2019-11-26T13:06:06.22 3.0 negative manual Pn -0.91 0
IV.SICLA.EHZ. 2019-11-26T13:06:06.98 3.0 negative manual Pn -0.49 0
IV.CPOZ.HHZ. 2019-11-26T13:06:04.56 3.0 undecidable manual Pn 0.47 0
IV.IST3.HHZ. 2019-11-26T13:06:04.26 3.0 negative manual Pn -1.6 0
IV.CERA.HHZ. 2019-11-26T13:06:04.62 3.0 negative manual Pn 0.62 0
IV.LPEL.HHZ. 2019-11-26T13:06:03.05 3.0 negative manual Pn 0.47 0
IV.RNI2.HHZ. 2019-11-26T13:06:03.25 3.0 negative manual Pn 0.63 0
IV.VAGA.HHZ. 2019-11-26T13:06:02.43 3.0 undecidable manual Pn 0.58 0
IV.VCRE.HHZ. 2019-11-26T13:06:02.18 3.0 positive manual Pn 1.28 0
IV.PIGN.HHZ. 2019-11-26T13:06:02.94 3.0 negative manual Pn 0.28 0
IV.JOPP.HHZ. 2019-11-26T13:06:01.76 3.0 negative manual Pn -0.88 0
MN.KLV.HHZ. 2019-11-26T13:06:01.16 0.6 undecidable manual P 151 4.0074 54 1 0
IV.VTIR.HHZ. 2019-11-26T13:06:01.80 3.0 positive manual Pn 0.79 0
IV.PLAC.HHZ. 2019-11-26T13:05:59.86 3.0 negative manual Pn -0.65 0
IV.PAOL.HHZ. 2019-11-26T13:05:59.64 3.0 negative manual Pn 0.67 0
IV.FRES.HHZ. 2019-11-26T13:05:58.25 3.0 negative manual Pn 0.73 0
IV.VITU.HHZ. 2019-11-26T13:05:58.54 3.0 negative manual Pn 0.5 0
IV.BSSO.HHZ. 2019-11-26T13:05:58.27 3.0 negative manual Pn 0.2 0
IV.SACR.HHZ. 2019-11-26T13:05:57.29 3.0 negative manual Pn 0.29 0
IV.MRB1.HHZ. 2019-11-26T13:05:56.13 3.0 undecidable manual Pn 1.46 0
IV.GATE.HHZ. 2019-11-26T13:05:55.52 3.0 negative manual Pn 0.7 0
IV.BULG.HHZ. 2019-11-26T13:05:55.18 3.0 negative manual Pn 0.41 0
IV.MTMR.EHZ. 2019-11-26T13:05:54.82 3.0 positive manual Pn 0.03 0
MN.BLY.HHZ. 2019-11-26T13:05:54.97 0.6 undecidable manual P 331 3.6557 54 -0.33 0
IV.CIGN.HHZ. 2019-11-26T13:05:54.60 3.0 undecidable manual Pn -0.25 0
IV.CDRU.HHZ. 2019-11-26T13:05:53.44 3.0 negative manual Pn 0.14 0
IV.CET2.HHZ. 2019-11-26T13:05:53.18 0.6 undecidable manual P 235 3.4876 54 0.21 0
IV.GRI.EHZ. 2019-11-26T13:05:53.24 3.0 undecidable manual Pn -3.39 0
IV.CMPR.HHZ. 2019-11-26T13:05:53.75 3.0 undecidable manual Pn -0.4 0
IV.MGR.HHZ. 2019-11-26T13:05:53.09 3.0 negative manual P 3.4309 0.9 0
HL.VLS.HHZ. 2019-11-26T13:05:52.00 1.0 undecidable manual P 168 3.4669 54 -0.69 0
IV.CAR1.HHZ. 2019-11-26T13:05:52.91 0.6 undecidable manual P 230 3.511 54 -0.39 0
IV.SNAL.HHZ. 2019-11-26T13:05:52.51 3.0 negative manual Pn -0.16 0
IV.MELA.HHZ. 2019-11-26T13:05:52.31 3.0 negative manual Pn -0.28 0
IV.CAFE.HHZ. 2019-11-26T13:05:51.40 3.0 undecidable manual Pn -0.72 0
IV.SLCN.HHZ. 2019-11-26T13:05:51.20 3.0 undecidable manual P 3.2717 1.21 0
IV.MMN.HHZ. 2019-11-26T13:05:50.19 0.6 undecidable manual P 240 3.2582 54 0.38 0
MN.CUC.HHZ. 2019-11-26T13:05:50.59 0.6 undecidable manual P 243 3.3203 54 -0.08 0
IV.SGTA.HHZ. 2019-11-26T13:05:50.53 3.0 undecidable manual Pn -0.04 0
MN.TIP.HHZ. 2019-11-26T13:05:50.23 0.3 undecidable manual P 224 3.2654 54 0.33 0
IV.CELI.HHZ. 2019-11-26T13:05:49.61 0.6 undecidable manual P 229 3.2412 54 0.04 0
IV.MCEL.HHZ. 2019-11-26T13:05:48.96 0.1 undecidable manual P 248 3.1791 54 0.25 0
IV.SIRI.HHZ. 2019-11-26T13:05:48.70 0.6 undecidable manual P 245 3.1962 54 -0.25 0
IV.TDS.HHZ. 2019-11-26T13:05:48.70 0.1 undecidable manual P 234 3.1737 54 0.06 0
IV.VULT.HHZ. 2019-11-26T13:05:48.55 3.0 negative manual P 3.1117 0.77 0
IV.APRC.HHZ. 2019-11-26T13:05:47.53 3.0 negative manual P 3.0901 0.05 0
IV.LADO.EHZ. 2019-11-26T13:05:47.72 0.6 undecidable manual P 223 3.0739 54 0.46 0
IV.SCHR.EHZ. 2019-11-26T13:05:47.07 0.1 undecidable manual P 244 3.0469 54 0.18 0
IV.SALB.HHZ. 2019-11-26T13:05:46.68 0.1 negative manual P 237 3.0388 54 -0.1 0
IV.CAPA.HHZ. 2019-11-26T13:05:45.15 0.6 undecidable manual P 263 2.9237 54 -0.04 0
IV.SGRT.HHZ. 2019-11-26T13:05:45.57 0.3 undecidable manual P 275 2.9408 54 0.15 0
IV.ACER.HHZ. 2019-11-26T13:05:45.05 0.6 undecidable manual P 256 2.9156 54 -0.03 0
IV.PTRP.HHZ. 2019-11-26T13:05:45.06 0.6 undecidable manual P 250 2.9201 54 -0.08 0
IV.PALZ.HHZ. 2019-11-26T13:05:44.39 0.3 undecidable manual P 259 2.8616 54 0.07 0
IV.ORI.HHZ. 2019-11-26T13:05:44.62 0.3 undecidable manual P 239 2.8751 54 0.1 0
IV.MSAG.HHZ. 2019-11-26T13:05:43.75 0.1 undecidable manual P 274 2.8158 54 0.06 0
OT.OT14.EHZ. 2019-11-26T13:05:43.74 0.6 undecidable manual P 278 2.8284 54 -0.13 0
MN.THL.HHZ. 2019-11-26T13:05:42.70 1.0 undecidable manual P 138 2.6809 54 0.87 0
IV.CRAC.EHZ. 2019-11-26T13:05:42.54 0.3 undecidable manual P 245 2.7204 54 0.17 1
IV.MIGL.HHZ. 2019-11-26T13:05:41.20 0.1 undecidable manual P 249 2.6224 54 0.18 4
AC.KBN.HHZ. 2019-11-26T13:05:39.00 3.0 undecidable manual S 1.2662 0.71 0
GE.MATE.HHZ. 2019-11-26T13:05:38.13 0.1 undecidable manual P 249 2.421 54 -0.11 19
IV.AMUR.HHZ. 2019-11-26T13:05:38.25 0.1 negative manual P 255 2.4021 54 0.26 20
IV.LTRZ.EHZ. 2019-11-26T13:05:37.41 0.3 negative manual P 247 2.3607 54 0.01 19
MN.KEK.HHZ. 2019-11-26T13:05:37.58 3.0 undecidable manual P 1.8625 7.05 0
AC.VLO.HHZ. 2019-11-26T13:05:34.40 0.3 undecidable manual S 187 1.1134 54 -0.23 72
IV.NOCI.HHZ. 2019-11-26T13:05:34.13 0.1 undecidable manual P 249 2.1152 54 0.11 54
OT.TAR1.HHZ. 2019-11-26T13:05:33.30 0.1 undecidable manual P 241 2.0846 54 -0.29 56
CR.STON.BHZ. 2019-11-26T13:05:32.66 0.6 undecidable manual P 312 1.9542 54 0.86 29
OT.CGL1.HHN. 2019-11-26T13:05:30.59 0.1 undecidable manual P 241 1.8697 54 -0.04 83
MN.PDG.HHZ. 2019-11-26T13:05:29.70 0.3 undecidable manual S 340 0.9083 54 -0.03 75
IV.MESG.HHZ. 2019-11-26T13:05:28.31 0.6 undecidable manual P 235 1.6907 54 0.15 47
AC.KBN.HHZ. 2019-11-26T13:05:26.53 3.0 undecidable manual P 1.2662 4.24 0
AC.VLO.HHZ. 2019-11-26T13:05:20.47 0.6 undecidable manual P 187 1.1134 54 0.29 47
MN.PDG.HHZ. 2019-11-26T13:05:17.00 0.3 undecidable manual P 340 0.9083 54 -0.35 70
MN.TIR.HHZ. 2019-11-26T13:05:14.10 0.3 undecidable manual S 148 0.2671 137 0.14 73
MN.TIR.HHZ. 2019-11-26T13:05:08.22 0.1 undecidable manual P 148 0.2671 137 -0.03 100
Ampiezza e Magnitudo per ciascuna stazione
SCNL mag Generic_amplitude Period Type Category Unit Time_window_reference
MN.TIR.HHE. ML:5.3 0.63 0.48 AML other m 2019-11-26T13:05:14.59
MN.TIR.HHN. ML:4.9 0.2215 0.44 AML other m 2019-11-26T13:05:16.55
MN.PDG.HNE. ML:4.3 0.01695 0.66 AML other m 2019-11-26T13:05:35.28
MN.PDG.HHE. ML:4.3 0.01705 0.64 AML other m 2019-11-26T13:05:35.28
MN.PDG.HNN. ML:4.1 0.0127 1.46 AML other m 2019-11-26T13:05:36.86
MN.PDG.HHN. ML:4.1 0.01295 1.48 AML other m 2019-11-26T13:05:36.86
AC.VLO.HHE. ML:5.2 0.1165 1.52 AML other m 2019-11-26T13:05:46.87
AC.VLO.HHN. ML:5.2 0.11375 0.48 AML other m 2019-11-26T13:05:50.49
IV.VITU.HNE. ML:4.4 0.00126 0.44 AML other m 2019-11-26T13:06:00.74
CR.STON.BHE. ML:4.6 0.009875 1 AML other m 2019-11-26T13:06:06.56
IV.VAGA.HNN. ML:4.8 0.00228 0.48 AML other m 2019-11-26T13:06:07.59
IV.VAGA.HHN. ML:4.8 0.00235 0.48 AML other m 2019-11-26T13:06:07.59
CR.STON.BHN. ML:4.6 0.00971 0.36 AML other m 2019-11-26T13:06:07.48
IV.LRP.EHE. ML:4.5 0.0008875 0.44 AML other m 2019-11-26T13:06:11.33
IV.NOCI.HHN. ML:4.7 0.010285 1.08 AML other m 2019-11-26T13:06:12.25
IV.NOCI.HHE. ML:4.7 0.0108 0.4 AML other m 2019-11-26T13:06:16.60
IV.NRCA.HHE. ML:4.9 0.001655 1.34 AML other m 2019-11-26T13:06:16.31
IV.FDMO.HHE. ML:4.6 0.0007555 0.32 AML other m 2019-11-26T13:06:17.64
IV.CERA.HNN. ML:4.8 0.00202 0.64 AML other m 2019-11-26T13:06:17.50
IV.CERA.HHN. ML:4.8 0.00207 0.64 AML other m 2019-11-26T13:06:17.50
IV.FIAM.HHE. ML:4.4 0.0005645 0.54 AML other m 2019-11-26T13:06:19.65
OT.TAR1.HHN. ML:4.8 0.0147 0.72 AML other m 2019-11-26T13:06:21.79
IV.LNSS.HHE. ML:4.8 0.00143 0.6 AML other m 2019-11-26T13:06:22.48
IV.LNSS.HNE. ML:4.8 0.001375 0.6 AML other m 2019-11-26T13:06:22.48
IV.ATCC.EHN. ML:0 0.00128 0.5 AML other m 2019-11-26T13:06:27.36
GE.MATE.HHN. ML:4.6 0.006915 0.92 AML other m 2019-11-26T13:06:27.02
IV.LTRZ.HNE. ML:4.6 0.007025 0.76 AML other m 2019-11-26T13:06:27.18
IV.AMUR.HHE. ML:4.7 0.007885 1.3 AML other m 2019-11-26T13:06:27.17
OT.TAR1.HHE. ML:4.8 0.0146 1.04 AML other m 2019-11-26T13:06:28.73
IV.LTRZ.HNN. ML:4.7 0.00784 0.8 AML other m 2019-11-26T13:06:31.41
IV.MMN.HHN. ML:4.7 0.00396 1.12 AML other m 2019-11-26T13:06:32.78
GE.MATE.HHE. ML:4.6 0.006895 0.72 AML other m 2019-11-26T13:06:32.60
MN.CUC.HHE. ML:4.9 0.00586 1.1 AML other m 2019-11-26T13:06:37.02
MN.CUC.HNE. ML:4.9 0.00598 1.1 AML other m 2019-11-26T13:06:37.03
IV.AMUR.HHN. ML:4.4 0.00425 0.58 AML other m 2019-11-26T13:06:37.75
MN.THL.HHN. ML:3.9 0.000969 0.64 AML other m 2019-11-26T13:06:37.54
MN.CUC.HHN. ML:4.8 0.00443 0.66 AML other m 2019-11-26T13:06:38.56
MN.CUC.HNN. ML:4.8 0.00444 0.66 AML other m 2019-11-26T13:06:38.56
IV.MIGL.HHE. ML:5.4 0.03165 1.06 AML other m 2019-11-26T13:06:39.15
IV.MSAG.HNE. ML:4.6 0.004015 1.42 AML other m 2019-11-26T13:06:40.89
IV.MSAG.HHE. ML:4.2 0.00168 1.42 AML other m 2019-11-26T13:06:40.89
HL.VLS.HHE. ML:4.7 0.00346 0.3 AML other m 2019-11-26T13:06:40.04
IV.GRI.EHN. ML:4.7 0.002775 0.58 AML other m 2019-11-26T13:06:40.60
MN.THL.HHE. ML:3.8 0.000779 0.82 AML other m 2019-11-26T13:06:40.54
IV.MIGL.HHN. ML:5.4 0.03475 1.08 AML other m 2019-11-26T13:06:41.00
IV.FRES.HHE. ML:4.6 0.00198 0.68 AML other m 2019-11-26T13:06:41.13
HL.VLS.HHN. ML:4.8 0.004565 0.48 AML other m 2019-11-26T13:06:42.59
IV.CAPA.HHE. ML:5 0.00916 1 AML other m 2019-11-26T13:06:43.13
IV.CAPA.HNE. ML:4.7 0.00558 1 AML other m 2019-11-26T13:06:43.64
IV.SGRT.HHE. ML:4.5 0.00293 0.58 AML other m 2019-11-26T13:06:44.77
IV.CERT.HHE. ML:4.5 0.0006645 1.24 AML other m 2019-11-26T13:06:44.88
IV.PALZ.HHE. ML:5.4 0.02875 0.78 AML other m 2019-11-26T13:06:45.58
IV.FRES.HHN. ML:4.6 0.001935 0.58 AML other m 2019-11-26T13:06:45.97
IV.VITU.HNN. ML:4.8 0.00283 0.46 AML other m 2019-11-26T13:06:45.61
IV.VITU.HHN. ML:4.8 0.00295 0.46 AML other m 2019-11-26T13:06:45.61
IV.CAR1.HNE. ML:4.9 0.004705 0.78 AML other m 2019-11-26T13:06:45.87
IV.CAR1.HHE. ML:4.9 0.004645 0.72 AML other m 2019-11-26T13:06:45.87
IV.VTIR.HHE. ML:4.3 0.0009395 0.74 AML other m 2019-11-26T13:06:46.15
IV.PALZ.HHN. ML:5.1 0.0133 1.1 AML other m 2019-11-26T13:06:47.25
IV.SALB.HHN. ML:4.6 0.003875 1.16 AML other m 2019-11-26T13:06:47.38
IV.PLAC.HHE. ML:5 0.003855 1.22 AML other m 2019-11-26T13:06:47.02
IV.MSAG.HHN. ML:4.4 0.002545 0.44 AML other m 2019-11-26T13:06:47.99
IV.MSAG.HNN. ML:4.7 0.006145 0.42 AML other m 2019-11-26T13:06:47.99
IV.PLAC.HNN. ML:5 0.00383 1.22 AML other m 2019-11-26T13:06:48.63
IV.LADO.EHN. ML:3.6 0.00032 1.08 AML other m 2019-11-26T13:06:49.28
IV.PLAC.HHN. ML:5.1 0.00518 0.62 AML other m 2019-11-26T13:06:49.80
IV.PLAC.HNE. ML:5.1 0.004975 0.62 AML other m 2019-11-26T13:06:49.80
IV.CRAC.EHE. ML:5.2 0.01895 0.92 AML other m 2019-11-26T13:06:50.17
IV.SCHR.EHE. ML:4.6 0.00333 1.12 AML other m 2019-11-26T13:06:50.26
IV.ORI.HHN. ML:5 0.010575 1.28 AML other m 2019-11-26T13:06:50.22
IV.LADO.EHE. ML:3.7 0.000439 0.68 AML other m 2019-11-26T13:06:50.65
IV.CRAC.EHN. ML:5 0.012275 0.82 AML other m 2019-11-26T13:06:51.01
IV.CAPA.HHN. ML:4.9 0.00809 1 AML other m 2019-11-26T13:06:51.97
IV.JOPP.HHE. ML:4.6 0.001645 1.4 AML other m 2019-11-26T13:06:51.72
IV.LPEL.HNN. ML:4.5 0.00134 1.12 AML other m 2019-11-26T13:06:52.01
IV.LPEL.HHN. ML:4.5 0.001331 1.12 AML other m 2019-11-26T13:06:52.01
IV.ORI.HHE. ML:5 0.01105 0.96 AML other m 2019-11-26T13:06:52.24
IV.CAPA.HNN. ML:4.7 0.00582 1.04 AML other m 2019-11-26T13:06:52.96
IV.JOPP.HHN. ML:4.5 0.00117 0.9 AML other m 2019-11-26T13:06:52.22
IV.CELI.HNE. ML:4.5 0.002425 0.9 AML other m 2019-11-26T13:06:52.82
IV.CELI.HHE. ML:4.9 0.00599 0.9 AML other m 2019-11-26T13:06:52.82
IV.MELA.HHE. ML:4.9 0.005385 1.12 AML other m 2019-11-26T13:06:53.97
IV.MELA.HNE. ML:4.9 0.00538 1.1 AML other m 2019-11-26T13:06:53.97
IV.SGRT.HHN. ML:4.5 0.00321 0.94 AML other m 2019-11-26T13:06:53.78
IV.IST3.HHE. ML:4.8 0.00185 1.26 AML other m 2019-11-26T13:06:54.66
IV.ACER.HNE. ML:5.1 0.0116 0.68 AML other m 2019-11-26T13:06:54.91
IV.ACER.HHE. ML:5.1 0.012 0.68 AML other m 2019-11-26T13:06:54.91
IV.TDS.HHE. ML:4.2 0.00139 0.9 AML other m 2019-11-26T13:06:54.15
IV.RNI2.HNE. ML:4.5 0.00122 0.52 AML other m 2019-11-26T13:06:54.89
IV.RNI2.HHE. ML:4.5 0.001255 0.52 AML other m 2019-11-26T13:06:54.89
IV.MCEL.HHN. ML:4.8 0.005775 0.98 AML other m 2019-11-26T13:06:54.21
IV.MCEL.HNN. ML:4.8 0.005685 0.98 AML other m 2019-11-26T13:06:54.21
MN.KLV.HHN. ML:4.4 0.0009715 1.04 AML other m 2019-11-26T13:06:54.87
IV.VTIR.HHN. ML:4.4 0.00099 0.52 AML other m 2019-11-26T13:06:55.27
IV.ACER.HNN. ML:5 0.0107 0.62 AML other m 2019-11-26T13:06:55.68
IV.ACER.HHN. ML:5 0.0112 0.62 AML other m 2019-11-26T13:06:55.68
IV.SGTA.HNE. ML:4.7 0.00418 1.5 AML other m 2019-11-26T13:06:55.78
IV.SGTA.HHE. ML:4.8 0.00428 1.52 AML other m 2019-11-26T13:06:55.78
IV.LPEL.HNE. ML:4.5 0.0011985 0.84 AML other m 2019-11-26T13:06:56.71
IV.LPEL.HHE. ML:4.5 0.00122 0.84 AML other m 2019-11-26T13:06:56.71
IV.SCHR.EHN. ML:4.6 0.00324 0.82 AML other m 2019-11-26T13:06:56.87
IV.SALB.HHE. ML:4.7 0.0041 0.7 AML other m 2019-11-26T13:06:56.15
MN.TIP.HHN. ML:4.6 0.002655 1.04 AML other m 2019-11-26T13:06:56.25
MN.TIP.HNN. ML:4.6 0.002675 1.04 AML other m 2019-11-26T13:06:56.25
IV.APRC.HHE. ML:4.5 0.00255 1.48 AML other m 2019-11-26T13:06:57.09
IV.MCEL.HHE. ML:4.7 0.004015 0.94 AML other m 2019-11-26T13:06:57.73
IV.MCEL.HNE. ML:4.7 0.00397 0.94 AML other m 2019-11-26T13:06:57.73
MN.TIP.HHE. ML:4.7 0.00356 0.92 AML other m 2019-11-26T13:06:57.80
MN.TIP.HNE. ML:4.7 0.003655 0.92 AML other m 2019-11-26T13:06:57.81
IV.VULT.HNN. ML:5 0.00832 0.92 AML other m 2019-11-26T13:06:57.37
IV.VULT.HHN. ML:5 0.008465 0.92 AML other m 2019-11-26T13:06:57.37
IV.TDS.HHN. ML:4.2 0.00123 0.8 AML other m 2019-11-26T13:06:57.89
IV.CAFE.HNN. ML:4.5 0.00227 1.04 AML other m 2019-11-26T13:06:58.65
IV.CAFE.HHN. ML:4.5 0.00233 1.04 AML other m 2019-11-26T13:06:58.65
IV.BSSO.HHE. ML:4.1 0.0006315 0.82 AML other m 2019-11-26T13:06:58.79
IV.CERA.HHE. ML:4.8 0.00201 0.54 AML other m 2019-11-26T13:06:59.48
IV.CERA.HNE. ML:4.7 0.00196 0.54 AML other m 2019-11-26T13:06:59.48
IV.VULT.HNE. ML:4.7 0.00458 0.76 AML other m 2019-11-26T13:06:59.72
IV.SGTA.HHN. ML:4.5 0.002505 0.86 AML other m 2019-11-26T13:06:59.77
IV.VULT.HHE. ML:4.7 0.004675 0.74 AML other m 2019-11-26T13:06:59.71
IV.SGTA.HNN. ML:4.5 0.002505 0.86 AML other m 2019-11-26T13:06:59.78
IV.SOI.EHE. ML:4.9 0.002295 0.52 AML other m 2019-11-26T13:06:59.22
IV.CDRU.HHN. ML:4.2 0.001038 0.82 AML other m 2019-11-26T13:06:59.48
IV.SOI.EHN. ML:5 0.00293 0.64 AML other m 2019-11-26T13:06:59.98
IV.GMB.BHN. ML:5.4 0.007945 0.76 AML other m 2019-11-26T13:07:00.59
IV.T0110.HHN. ML:4.8 0.00185 0.48 AML other m 2019-11-26T13:07:01.10
IV.APRC.HHN. ML:4.6 0.00381 0.62 AML other m 2019-11-26T13:07:01.59
IV.CELI.HHN. ML:5.1 0.01 0.96 AML other m 2019-11-26T13:07:01.74
IV.CELI.HNN. ML:4.7 0.00408 0.96 AML other m 2019-11-26T13:07:01.74
IV.LRP.EHN. ML:4.3 0.000584 0.62 AML other m 2019-11-26T13:07:01.47
IV.MELA.HHN. ML:4.9 0.005995 1.4 AML other m 2019-11-26T13:07:02.15
IV.SLCN.HHN. ML:4.9 0.006225 0.82 AML other m 2019-11-26T13:07:02.16
IV.MELA.HNN. ML:4.9 0.005855 1.38 AML other m 2019-11-26T13:07:02.16
IV.SLCN.HNN. ML:4.9 0.006145 0.82 AML other m 2019-11-26T13:07:02.16
IV.T0110.HHE. ML:4.7 0.001645 1.24 AML other m 2019-11-26T13:07:02.33
IV.TRTR.HHN. ML:5 0.00335 0.4 AML other m 2019-11-26T13:07:02.77
IV.MGR.HHE. ML:4.6 0.00268 1.2 AML other m 2019-11-26T13:07:02.27
IV.MGR.HNE. ML:4.6 0.00285 1.3 AML other m 2019-11-26T13:07:02.24
IV.MTMR.HNE. ML:4.4 0.00164 0.68 AML other m 2019-11-26T13:07:03.04
IV.MTMR.EHE. ML:4.5 0.0017 0.68 AML other m 2019-11-26T13:07:03.05
IV.VCEL.EHN. ML:4.6 0.00141 0.54 AML other m 2019-11-26T13:07:03.36
IV.VCEL.EHE. ML:4.7 0.001745 0.56 AML other m 2019-11-26T13:07:03.66
IV.SLCN.HHE. ML:4.8 0.004835 0.66 AML other m 2019-11-26T13:07:03.63
IV.SLCN.HNE. ML:4.8 0.004515 0.66 AML other m 2019-11-26T13:07:03.63
IV.MMN.HHE. ML:4.6 0.0032 0.42 AML other m 2019-11-26T13:07:04.06
IV.TRTR.HHE. ML:5.1 0.00408 0.4 AML other m 2019-11-26T13:07:04.43
IV.MRB1.HHE. ML:4.8 0.003435 0.92 AML other m 2019-11-26T13:07:04.76
IV.BSSO.HHN. ML:4 0.0005905 1.26 AML other m 2019-11-26T13:07:04.94
IV.MRB1.HNE. ML:4.8 0.00343 0.92 AML other m 2019-11-26T13:07:04.77
IV.MPNC.HHN. ML:5.1 0.003185 1.44 AML other m 2019-11-26T13:07:05.73
IV.MSRU.HHN. ML:4.8 0.001615 1.6 AML other m 2019-11-26T13:07:05.06
IV.GMB.BHE. ML:5.5 0.008805 1.4 AML other m 2019-11-26T13:07:05.07
IV.TERO.HHN. ML:4.6 0.000956 1.54 AML other m 2019-11-26T13:07:05.92
IV.IST3.HHN. ML:4.6 0.001435 0.86 AML other m 2019-11-26T13:07:05.19
IV.PTQR.HHN. ML:4.2 0.000423 1.4 AML other m 2019-11-26T13:07:06.83
IV.FAGN.HHE. ML:4.9 0.00234 1.46 AML other m 2019-11-26T13:07:06.94
IV.PIGN.HHE. ML:4.3 0.00084 0.48 AML other m 2019-11-26T13:07:06.26
IV.PIGN.HNE. ML:4.4 0.0008765 0.42 AML other m 2019-11-26T13:07:06.27
IV.MTMR.HNN. ML:4.5 0.0018 0.4 AML other m 2019-11-26T13:07:06.49
IV.MGR.HHN. ML:4.6 0.002585 0.8 AML other m 2019-11-26T13:07:06.70
IV.MTMR.EHN. ML:4.5 0.00171 0.42 AML other m 2019-11-26T13:07:06.52
IV.MGR.HNN. ML:4.6 0.002705 0.74 AML other m 2019-11-26T13:07:06.71
IV.GATE.HNN. ML:4.5 0.00208 1.12 AML other m 2019-11-26T13:07:06.98
IV.GATE.HHN. ML:4.6 0.002195 1.12 AML other m 2019-11-26T13:07:06.98
IV.CAR1.HHN. ML:4.8 0.00417 1.18 AML other m 2019-11-26T13:07:07.27
IV.CAR1.HNN. ML:4.9 0.00457 1.24 AML other m 2019-11-26T13:07:07.27
IV.CAMP.HHN. ML:4.5 0.0008265 0.7 AML other m 2019-11-26T13:07:07.59
IV.CAFE.HNE. ML:4.7 0.00355 0.42 AML other m 2019-11-26T13:07:07.60
IV.CAFE.HHE. ML:4.7 0.00349 0.42 AML other m 2019-11-26T13:07:07.60
IV.MSRU.HHE. ML:4.9 0.002255 0.98 AML other m 2019-11-26T13:07:07.30
MN.BLY.HHN. ML:4.7 0.0028 0.82 AML other m 2019-11-26T13:07:07.50
MN.BLY.HNN. ML:4.7 0.002905 0.82 AML other m 2019-11-26T13:07:07.51
IV.MNTT.EHE. ML:5.2 0.003645 0.6 AML other m 2019-11-26T13:07:08.05
IV.CDRU.HHE. ML:4.4 0.001575 0.68 AML other m 2019-11-26T13:07:08.54
IV.CIGN.HHE. ML:4.4 0.00136 0.88 AML other m 2019-11-26T13:07:08.20
IV.MTRA.EHN. ML:4.8 0.00169 1.22 AML other m 2019-11-26T13:07:08.86
IV.MTRA.HNN. ML:4.8 0.001665 1.24 AML other m 2019-11-26T13:07:08.86
IV.MNTT.EHN. ML:5.2 0.003825 1.56 AML other m 2019-11-26T13:07:08.87
IV.CAMP.HHE. ML:4.5 0.000756 1 AML other m 2019-11-26T13:07:08.87
IV.SNAL.HHN. ML:5 0.006425 0.74 AML other m 2019-11-26T13:07:08.58
IV.SNAL.HNN. ML:5 0.006335 0.76 AML other m 2019-11-26T13:07:08.59
IV.SMA1.EHN. ML:4.9 0.001755 0.42 AML other m 2019-11-26T13:07:09.12
IV.SNAL.HHE. ML:4.9 0.00488 0.84 AML other m 2019-11-26T13:07:09.27
IV.SNAL.HNE. ML:4.8 0.00444 0.82 AML other m 2019-11-26T13:07:09.28
IV.CET2.HHE. ML:5 0.006 0.72 AML other m 2019-11-26T13:07:09.78
IV.BULG.HNN. ML:5 0.006345 0.98 AML other m 2019-11-26T13:07:09.50
IV.BULG.HHN. ML:5 0.00651 0.98 AML other m 2019-11-26T13:07:09.50
IV.GATE.HHE. ML:4.5 0.001935 1.18 AML other m 2019-11-26T13:07:10.62
IV.MF5.EHN. ML:4.9 0.002025 0.44 AML other m 2019-11-26T13:07:10.03
IV.CET2.HHN. ML:5.1 0.00842 0.7 AML other m 2019-11-26T13:07:10.33
IV.MPNC.HHE. ML:5 0.002615 0.58 AML other m 2019-11-26T13:07:10.53
IV.CERT.HHN. ML:4.3 0.000441 0.58 AML other m 2019-11-26T13:07:10.58
IV.GIGS.HHN. ML:4.1 0.0003225 1.04 AML other m 2019-11-26T13:07:10.21
IV.GATE.HNE. ML:4.5 0.001935 0.62 AML other m 2019-11-26T13:07:10.62
IV.RNI2.HNN. ML:4.5 0.0011635 0.84 AML other m 2019-11-26T13:07:10.94
IV.RNI2.HHN. ML:4.5 0.0011435 0.84 AML other m 2019-11-26T13:07:10.94
IV.MTRA.HNE. ML:4.8 0.001405 0.56 AML other m 2019-11-26T13:07:10.71
IV.MTRA.EHE. ML:4.8 0.00144 1.42 AML other m 2019-11-26T13:07:11.71
IV.CMPR.HHN. ML:4.5 0.001875 1.12 AML other m 2019-11-26T13:07:11.05
IV.TERO.HHE. ML:4.5 0.00092 1.5 AML other m 2019-11-26T13:07:11.81
IV.CMPR.HHE. ML:4.5 0.002015 0.94 AML other m 2019-11-26T13:07:11.56
IV.SACR.HNE. ML:4.4 0.0013 0.94 AML other m 2019-11-26T13:07:11.99
IV.SACR.HHE. ML:4.4 0.001305 0.92 AML other m 2019-11-26T13:07:11.99
IV.CIGN.HHN. ML:4.4 0.00142 0.92 AML other m 2019-11-26T13:07:11.08
IV.VITU.HHE. ML:4.6 0.00201 0.6 AML other m 2019-11-26T13:07:11.73
IV.BULG.HHE. ML:4.7 0.0031 0.42 AML other m 2019-11-26T13:07:11.94
IV.BULG.HNE. ML:4.7 0.002985 0.42 AML other m 2019-11-26T13:07:11.74
IV.MRB1.HNN. ML:4.9 0.00478 0.66 AML other m 2019-11-26T13:07:12.23
IV.MRB1.HHN. ML:4.9 0.00473 0.64 AML other m 2019-11-26T13:07:12.23
IV.FIAM.HHN. ML:4.4 0.00063 0.58 AML other m 2019-11-26T13:07:13.02
HL.ITM.HHE. ML:4 0.000222 0.64 AML other m 2019-11-26T13:07:13.30
MN.BLY.HNE. ML:4.6 0.00203 0.7 AML other m 2019-11-26T13:07:13.64
MN.BLY.HHE. ML:4.6 0.002005 0.7 AML other m 2019-11-26T13:07:13.64
IV.SMA1.EHE. ML:4.8 0.001445 1.6 AML other m 2019-11-26T13:07:14.09
HL.ITM.HHN. ML:3.9 0.000216 0.42 AML other m 2019-11-26T13:07:14.35
IV.NRCA.HHN. ML:4.9 0.001765 0.96 AML other m 2019-11-26T13:07:15.48
IV.LNSS.HHN. ML:4.8 0.001425 0.5 AML other m 2019-11-26T13:07:15.39
IV.LNSS.HNN. ML:4.9 0.001455 0.5 AML other m 2019-11-26T13:07:15.40
IV.VVLD.HHE. ML:4.5 0.000962 0.68 AML other m 2019-11-26T13:07:15.93
IV.VVLD.HNE. ML:4.5 0.0009335 0.66 AML other m 2019-11-26T13:07:15.93
IV.GRI.EHE. ML:4.7 0.002535 0.98 AML other m 2019-11-26T13:07:15.76
IV.VAGA.HNE. ML:4.5 0.00136 1.16 AML other m 2019-11-26T13:07:15.32
IV.VAGA.HHE. ML:4.5 0.00139 1.16 AML other m 2019-11-26T13:07:15.32
IV.SACR.HHN. ML:4.5 0.00164 0.78 AML other m 2019-11-26T13:07:16.53
IV.SACR.HNN. ML:4.5 0.001515 0.8 AML other m 2019-11-26T13:07:16.52
IV.MUCR.HHE. ML:4.7 0.001014 1.38 AML other m 2019-11-26T13:07:17.26
IV.BSSO.HNE. ML:7.4 1.16 0.42 AML other m 2019-11-26T13:07:17.61
IV.BSSO.HNN. ML:7.4 1.175 0.42 AML other m 2019-11-26T13:07:17.62
IV.FDMO.HHN. ML:4.6 0.0007215 0.5 AML other m 2019-11-26T13:07:17.83
IV.FAGN.HHN. ML:4.8 0.001875 0.5 AML other m 2019-11-26T13:07:18.70
IV.VCRE.HHN. ML:5 0.00391 0.7 AML other m 2019-11-26T13:07:18.37
IV.CESI.HNE. ML:4.7 0.000942 0.4 AML other m 2019-11-26T13:07:19.25
IV.MUCR.HHN. ML:4.8 0.0013 0.82 AML other m 2019-11-26T13:07:19.56
IV.CSP1.EHN. ML:4.8 0.001224 1.42 AML other m 2019-11-26T13:07:20.95
IV.PAOL.HHE. ML:4.6 0.00198 0.76 AML other m 2019-11-26T13:07:20.23
IV.PAOL.HNE. ML:4.6 0.001975 0.76 AML other m 2019-11-26T13:07:20.23
IV.ARVD.HHN. ML:4.4 0.0004175 1.3 AML other m 2019-11-26T13:07:20.70
IV.PAOL.HHN. ML:4.7 0.00224 1.48 AML other m 2019-11-26T13:07:20.98
IV.PAOL.HNN. ML:4.7 0.002165 1.44 AML other m 2019-11-26T13:07:20.98
IV.AIO.HHN. ML:4.7 0.001025 0.58 AML other m 2019-11-26T13:07:21.07
IV.CESI.HHE. ML:4.8 0.0010995 0.58 AML other m 2019-11-26T13:07:21.32
IV.VCRE.HHE. ML:5 0.00458 0.86 AML other m 2019-11-26T13:07:21.58
IV.AIO.HHE. ML:4.7 0.001044 1.28 AML other m 2019-11-26T13:07:21.12
IV.MF5.EHE. ML:4.9 0.0018 1.42 AML other m 2019-11-26T13:07:21.81
IV.CSP1.EHE. ML:4.6 0.000872 1.12 AML other m 2019-11-26T13:07:22.75
IV.VVLD.HHN. ML:4.4 0.000786 0.84 AML other m 2019-11-26T13:07:23.37
IV.VVLD.HNN. ML:4.4 0.000765 0.86 AML other m 2019-11-26T13:07:23.37
IV.EPZF.HHN. ML:5.2 0.00269 0.74 AML other m 2019-11-26T13:07:23.86
IV.CESI.HNN. ML:4.9 0.001525 1.5 AML other m 2019-11-26T13:07:24.93
IV.CESI.HHN. ML:5 0.00161 1.5 AML other m 2019-11-26T13:07:24.93
IV.EPZF.HHE. ML:5.3 0.0033 1.34 AML other m 2019-11-26T13:07:25.81
MN.KLV.HHE. ML:4.4 0.00116 0.94 AML other m 2019-11-26T13:07:26.11
IV.PIGN.HNN. ML:4.3 0.0007185 1.06 AML other m 2019-11-26T13:07:27.90
IV.PIGN.HHN. ML:4.2 0.000695 1.06 AML other m 2019-11-26T13:07:27.90
mn.BZS.HHE. ML:0 0.0017 0.42 AML other m 2019-11-26T13:07:28.83
IV.ATCC.EHE. ML:0 0.00136 0.58 AML other m 2019-11-26T13:07:29.49
mn.BZS.HHN. ML:0 0.0008385 1.46 AML other m 2019-11-26T13:07:33.04
IV.PTQR.HHE. ML:4.3 0.000588 0.96 AML other m 2019-11-26T13:07:33.99
IV.ARVD.HHE. ML:4.5 0.000508 1.44 AML other m 2019-11-26T13:07:35.09
IV.GIGS.HHE. ML:4 0.0002665 0.68 AML other m 2019-11-26T13:07:37.64
SL.BOJS.BHE. ML:5.2 0.003015 0.5 AML other m 2019-11-26T13:07:50.85
SL.BOJS.BHN. ML:5.1 0.00258 1.5 AML other m 2019-11-26T13:07:50.90
TDMT - Time Domain Moment Tensor
Meccanismi focali nell'area
Download
Tipo Descrizione Link
QuakeML - small Event, Origin, FocalMechanism Download
QuakeML - full Event, Origin, FocalMechanism, Amplitude, Arrival, Pick, Station Magnitude Download